Satellite-Ground Cal/Val Region Overpasses Predictions

Prediction of Satellite NPP Overpassing Cal/Val Region: PacNW

Region Location: (Latitude: 10.00, Longitude: 139.50) to (Latitude: 22.70, Longitude: 165.60).

Table of predicted overpasses for the next 14.0 days since TLE Epoch: 1/14/2017
Interval Starting Time Starting Location Ending Time Ending Location
1 01/14/2017 15:49:41 ( 22.65, 147.49) 01/14/2017 15:53:16 ( 10.03, 144.49)
2 01/15/2017 02:58:45 ( 10.00, 155.04) 01/15/2017 03:02:21 ( 22.68, 152.02)
3 01/15/2017 15:30:39 ( 22.66, 152.26) 01/15/2017 15:34:14 ( 10.04, 149.25)
4 01/16/2017 02:39:43 ( 10.05, 159.78) 01/16/2017 02:43:18 ( 22.67, 156.78)
5 01/16/2017 15:11:36 ( 22.67, 157.02) 01/16/2017 15:15:11 ( 10.05, 154.02)
6 01/17/2017 02:20:41 ( 10.04, 164.54) 01/17/2017 02:24:16 ( 22.66, 161.54)
7 01/17/2017 14:52:34 ( 22.68, 161.78) 01/17/2017 14:56:10 ( 10.00, 158.76)
8 01/18/2017 03:43:08 ( 10.03, 143.93) 01/18/2017 03:46:43 ( 22.65, 140.93)
9 01/18/2017 14:34:37 ( 18.82, 165.59) 01/18/2017 14:37:07 ( 10.01, 163.52)
10 01/18/2017 16:15:01 ( 22.68, 141.16) 01/18/2017 16:16:57 ( 15.88, 139.51)
11 01/19/2017 03:24:06 ( 10.02, 148.69) 01/19/2017 03:27:41 ( 22.64, 145.69)
12 01/19/2017 15:55:59 ( 22.69, 145.92) 01/19/2017 15:59:35 ( 10.01, 142.91)
13 01/20/2017 03:05:03 ( 10.01, 153.45) 01/20/2017 03:08:39 ( 22.69, 150.44)
14 01/20/2017 15:36:57 ( 22.65, 150.67) 01/20/2017 15:40:32 ( 10.02, 147.67)
15 01/21/2017 02:46:01 ( 10.00, 158.21) 01/21/2017 02:49:37 ( 22.68, 155.20)
16 01/21/2017 15:17:55 ( 22.65, 155.43) 01/21/2017 15:21:30 ( 10.03, 152.43)
17 01/22/2017 02:26:59 ( 10.05, 162.96) 01/22/2017 02:30:34 ( 22.67, 159.96)
18 01/22/2017 14:58:52 ( 22.66, 160.19) 01/22/2017 15:02:27 ( 10.04, 157.19)
19 01/23/2017 02:10:32 ( 19.15, 165.59) 01/23/2017 02:11:32 ( 22.66, 164.72)
20 01/23/2017 03:49:27 ( 10.05, 142.34) 01/23/2017 03:52:51 ( 22.03, 139.50)
21 01/23/2017 14:39:50 ( 22.67, 164.95) 01/23/2017 14:43:25 ( 10.05, 161.95)
22 01/23/2017 16:21:20 ( 22.67, 139.58) 01/23/2017 16:21:25 ( 22.37, 139.50)
23
